Theta_e
350 355 356 357 355 353 354 353 353 353 353 353 353 353 353 353 353 353 353 352 352 350 349 348 347 347 347 347 347 348 350 352
350 353 355 356 354 353 354 353 353 353 353 353 354 353 354 353 353 353 353 352 349 348 347 346 345 345 345 347 348 349 350 352
351 351 354 356 356 355 354 353 354 355 355 354 354 354 354 353 353 353 352 351 349 348 346 346 345 347 348 349 350 351 351 352
351 351 351 351 355 354 355 354 354 354 354 354 353 354 353 353 353 352 351 350 349 348 347 347 348 350 351 352 353 353 353 354
348 350 349 350 349 349 352 354 354 354 354 353 354 354 353 353 353 352 352 351 350 350 350 350 351 352 353 355 356 356 354 355
343 348 348 346 347 346 346 352 354 354 354 354 353 354 352 349 350 352 352 352 350 350 351 352 353 355 357 357 357 357 357 351
339 344 346 346 346 345 346 351 349 349 350 350 349 352 350 349 349 347 353 352 350 351 354 355 357 357 357 354 354 357 356 352
339 342 345 347 349 345 345 349 347 347 347 349 351 354 350 347 347 343 342 347 347 348 351 351 355 356 355 351 348 349 348 346
338 341 344 348 351 349 345 347 347 346 347 348 350 354 352 350 348 346 343 344 348 349 350 352 348 350 351 351 350 348 347 347
337 340 343 348 353 352 350 347 347 346 347 348 350 352 349 348 347 346 345 344 344 346 349 348 349 349 350 349 348 349 347 349
340 341 343 347 355 353 354 353 348 349 348 348 348 348 351 350 350 346 348 348 346 347 349 350 352 352 351 351 352 355 352 352
343 345 345 348 354 356 354 353 351 348 346 348 349 352 352 354 354 354 351 351 353 355 354 354 353 353 353 352 355 352 351 354
346 350 350 347 350 355 355 353 348 347 346 349 351 351 354 354 357 358 353 353 355 356 355 353 355 352 350 350 349 349 348 351
349 350 354 354 349 353 358 352 353 357 349 350 353 352 356 355 355 356 354 355 361 356 355 353 352 358 350 350 347 349 348 347
349 355 358 356 362 361 355 354 349 346 348 349 352 353 357 357 357 357 357 362 360 355 353 353 354 353 349 349 344 343 346 346
355 357 358 359 363 358 352 348 346 344 347 346 350 357 360 361 361 362 359 359 357 358 355 355 351 352 345 351 339 336 333 343
357 360 362 361 365 362 356 356 351 349 348 351 355 360 361 362 362 359 358 356 356 351 352 349 348 343 342 340 332 326 322 325
355 360 359 364 365 363 361 359 358 354 354 351 355 357 359 358 358 358 357 354 354 352 346 345 341 338 330 332 337 326 320 318
351 354 360 364 367 365 367 357 358 347 346 352 354 355 354 355 354 354 354 352 349 344 342 336 334 334 331 325 325 328 331 328
Wind_Speed
18 19 18 16 14 14 14 13 13 13 12 12 12 11 10 10 9 8 7 6 6 5 4 4 3 2 3 4 4 5 8 12
18 19 17 16 16 15 15 14 14 13 12 12 11 11 10 10 8 7 6 6 4 4 3 2 1 2 4 5 6 7 9 15
18 17 17 15 15 14 15 14 14 12 12 12 11 9 9 8 7 6 5 5 4 3 2 2 3 4 6 7 8 9 9 13
18 18 16 15 14 14 14 13 13 12 11 11 10 9 8 7 7 6 5 5 4 4 4 5 5 6 7 8 10 11 11 16
17 18 17 16 16 14 13 13 13 12 11 10 9 9 8 7 7 8 7 10 8 7 7 7 8 9 10 11 13 13 15 19
14 17 17 17 16 15 15 13 12 11 11 10 9 9 9 9 10 12 8 11 9 8 9 10 10 12 13 16 18 18 18 10
16 17 16 16 16 15 12 14 12 11 10 10 10 11 9 10 6 4 6 11 10 11 12 15 15 16 15 12 10 17 9 10
17 14 16 12 12 13 12 10 8 8 8 8 10 9 9 5 6 6 6 8 8 14 9 13 14 11 15 6 10 5 8 8
16 15 14 14 12 10 8 9 9 8 8 7 8 9 6 5 4 6 5 5 4 6 7 4 7 7 7 10 10 10 10 9
15 15 14 15 12 10 8 8 7 7 7 8 7 9 8 7 5 5 5 5 6 6 5 6 7 6 7 10 9 6 9 10
14 16 15 16 14 13 10 8 7 7 7 6 7 7 9 6 4 6 5 6 5 6 6 7 6 8 8 9 6 5 6 9
14 15 15 15 16 14 13 10 8 8 8 8 7 8 8 8 5 6 6 5 5 5 6 7 9 7 4 5 5 5 8 7
16 15 16 15 18 15 13 11 9 8 8 8 7 7 9 9 7 7 6 6 6 4 7 7 5 5 8 6 8 8 8 9
17 17 16 15 17 17 13 11 11 10 8 8 7 7 10 9 9 8 7 7 3 6 8 6 7 3 7 5 9 5 6 7
18 16 16 14 13 16 12 10 10 9 10 9 8 7 9 8 9 8 8 4 4 7 5 5 6 6 6 5 10 10 8 5
18 17 18 17 16 13 13 13 11 11 10 10 8 9 7 9 8 7 4 3 4 4 3 4 5 5 6 2 7 8 7 6
18 19 17 18 17 15 12 10 10 10 11 9 8 8 9 7 7 4 4 4 4 2 1 2 4 6 7 5 7 9 7 4
18 18 18 17 17 17 15 10 8 9 7 10 8 6 5 6 6 6 6 5 4 5 4 1 3 2 6 3 2 5 6 6
21 18 18 17 17 17 16 14 14 12 12 10 9 10 9 10 10 8 7 6 4 2 4 4 4 5 4 4 5 3 1 3
Wind_Direction
142 123 136 141 147 152 153 152 149 150 149 142 142 141 135 129 128 127 125 124 123 119 112 98 75 31 9 346 339 329 316 302
133 123 141 145 151 156 160 155 153 153 150 148 146 146 141 137 138 141 141 137 136 129 120 104 20 323 320 315 316 314 312 304
127 142 136 149 154 158 160 159 157 155 154 151 152 150 144 147 151 153 154 149 154 160 184 255 289 295 296 299 299 293 292 287
136 138 150 154 157 161 161 160 161 158 157 154 158 155 158 169 172 171 175 179 184 210 225 249 262 269 276 280 280 281 281 273
154 144 154 154 161 166 161 166 164 163 163 161 164 168 178 189 188 199 204 201 199 222 239 246 256 262 262 260 255 250 253 259
168 153 162 165 164 174 158 160 168 170 168 170 176 186 194 209 183 181 167 156 202 226 247 254 254 256 254 250 243 240 239 254
176 163 163 171 164 173 152 150 180 173 184 191 189 176 221 224 187 289 158 175 207 229 241 242 239 241 249 260 212 228 236 247
175 172 164 172 163 172 166 164 182 174 185 192 196 191 217 208 202 210 221 201 212 211 236 205 224 230 235 308 313 291 304 291
172 172 170 168 172 198 173 177 183 188 186 190 194 193 239 221 224 265 246 259 201 196 250 285 268 327 318 272 280 298 297 317
174 172 182 168 178 196 205 183 196 205 191 191 177 187 223 225 232 236 248 270 289 306 306 280 279 302 300 273 282 324 309 304
185 172 184 175 174 193 201 199 197 192 179 217 192 202 214 236 222 251 233 250 259 273 282 284 310 334 311 300 303 345 274 282
186 176 186 186 174 198 193 203 208 189 216 198 210 193 211 205 223 269 254 262 260 252 280 276 260 268 271 336 287 272 303 306
185 186 189 190 176 188 189 194 204 206 207 203 201 189 204 209 231 206 245 250 264 290 286 280 305 322 319 313 299 294 307 314
191 186 189 193 185 181 195 197 209 196 214 208 204 199 180 209 216 227 247 256 236 275 274 303 305 327 300 317 302 299 288 281
191 187 192 191 201 175 183 206 198 200 199 214 207 208 179 209 213 221 243 286 290 264 293 359 337 330 302 321 302 315 277 272
191 193 191 193 189 182 193 195 199 203 199 208 205 208 203 218 223 212 243 209 248 302 323 328 300 274 296 321 322 299 310 173
191 195 194 195 189 193 196 199 203 200 195 203 191 184 211 200 177 184 233 171 204 120 270 357 306 316 302 52 331 306 302 311
200 195 203 201 195 196 201 195 202 201 198 198 180 175 200 175 166 177 187 135 169 253 145 343 357 17 329 319 62 340 325 4
195 199 200 205 205 197 203 193 197 200 192 193 189 180 169 173 176 169 164 155 191 119 102 120 65 333 347 339 327 42 4 341